Location: La Coruña
(43.3623°N, 8.4115°W)
Time: 02:39:20
(UTC+01:00)

STARLINK-1097 - Pass Details

Date: 20 January 2020
Orbit: 528 x 530 km, 53.0° (Epoch: 17 February)

Event Time Altitude Azimuth Distance (km) Brightness Sun altitude
Rises 19:41:50 0° 270° (W) 2,633 8.7 -13.2°
Reaches altitude 10° 19:44:18 10° 283° (WNW) 1,742 7.2 -13.6°
Maximum altitude 19:47:41 27° 342° (NNW) 1,019 5.0 -14.2°
Enters shadow 19:49:55 16° 30° (NNE) 1,376 5.2 -14.6°
